Showing default

EXPLORER 11, 107

Orbit data source: Space-Track

EXPLORER 11, 107 is a payload satellite owned by GSFC (US) in LEO that was launched on Thu, 27 Apr 1961 UTC via a JUNO II launch vehicle from the Air Force Eastern Test Range (AFETR). Payload-class satellites include a variety of spacecraft equipped with specific instruments for various scientific and technological missions. These include communications satellites like Starlink; space stations such as the ISS; scientific satellites like the Hubble; Earth observation satellites from companies like Planet Labs, Umbra, and HawkEye 360; GPS; miniature CubeSats for education and research; and military/defense satellites.

Not visible in the next 10 days
Identifier
107, 1961-013A
Orbit
LEO
Country
Flag of USUS
Related business
Manufacturer
NASA MSFC
Mission
Spacecraft
Bus & Motor
S-15, Unknown motor
Mass
45 kg wet, 40 kg dry
Launch date (UTC)
1961-04-27 (65 years ago)
Launch vehicle
JUNO II
Launch site
Air Force Eastern Test Range (AFETR)
Object type
Payload
Rocket body
Debris
Shape & HBR
Unknown
Radar Cross Section
Medium (>0.1 m² and <1 m²)

Expand to show TLE details & history
Last TLE update: 11 hours ago

TLE from 11 hours ago
0 EXPLORER 11
1   107U 61013A   26197.86179963  .00002399  00000-0  27722-3 0  9999
2   107  28.7739 145.3156 0492423  45.5955 318.3872 14.22323990280724
Epoch: 2026-07-16T20:40Z
TLE epoch observation values (Epoch: 2026-07-16T20:40:59.488Z)
Latitude
0.00003°
Longitude
-99.62938°
Altitude
559.146 km
Speed
7.718 km/s
True Right ascension
09h 41m 15s
True Declination
0° 00' 00"
Sunlit
Object was in daylight at epoch
Visualization orbit readout
Latitude
Unknown
Longitude
Unknown
Altitude
Unknown
Speed
Unknown
Apparent Right ascension
Unknown
Apparent Declination
Unknown
Sunlit
N/A
Visualization observer readout
Local Sidereal Time
20:37:25
Azimuth
Unknown
Elevation
Unknown
Doppler factor
Unknown
Orbital elements
Apogee altitude
1,176.046 km
Perigee altitude
466.99 km
Semi-major axis
7,199.655 km
Eccentricity
0.04924
Inclination
28.7739°
RAAN
145.3156°
Arg. of periapsis
45.5955°
True anomaly
314.46258°
Mean anomaly
318.3872°
Eccentric anomaly
316.44306°
Mean motion
3.55284 °/min
Orbital period
101.33 mins
BSTAR
0.00027722
Loading maneuver chart data...
Computing Atmospheric mass density...
Loading historical data...
Loading historical data...
Loading historical data...
Loading historical data...
Loading historical data...
Loading historical data...
Loading historical data...
Other satellites on launch #13 in the year 1961 (1961-04-27 UTC)

Documentation

Showing up to 5 results
|